Flag for Germany Weather past 2 weeks in Marburg, Hesse, Germany

Now
63 °F

Overcast.


Feels Like: 63 °F
Forecast: 51 / 68 °F
Wind: 8 mph from Southwest

Location: Giessen

Current Time: Jun 2, 2015 at 1:35:00 PM

Latest Report: Jun 2, 2015 at 1:00 PM


Visibility: 34 mi

Pressure: 29.97 "Hg

Humidity: 56%

Dew point: 47 °F

Location of MarburgLocation

Historic Weather in Marburg — Graph

°F

Marburg temperature yesterday

Maximum temperature yesterday: 61 °F (at 12:00 AM)
Minimum temperature yesterday: 52 °F (at 11:00 AM)
Average temperature yesterday: 56 °F

Past Weeks' High & Low Weather Summary

 TemperatureHumidityPressure
High71 °F (May 18, 6:00 PM)97% (May 25, 4:00 AM)30.36 "Hg (May 25, 4:00 AM)
Low36 °F (May 27, 3:00 AM)31% (May 18, 6:00 PM)29.67 "Hg (May 18, 8:00 PM)
Average55 °F68%30.03 "Hg
* Reported May 18 12:00 Noon — Jun 2 12:00 Noon, Marburg, Weather by CustomWeather, © 2015

Note: Actual official high and low records may vary slightly from our data, if they occured in-between our weather recording intervals... More about our weather records

Advertising

Marburg weather history for previous 24 hours

 ConditionsComfort  
Time TempWeatherWind HumidityBarometerVisibility
12:00 PM
Tue, Jun 2
61 °FOvercast.9 mph58%29.98 "Hg31 mi
11:00 AM60 °FOvercast.10 mph56%29.97 "Hg22 mi
10:00 AM59 °FOvercast.9 mph65%29.97 "Hg25 mi
9:00 AM57 °FOvercast.7 mph80%29.98 "Hg22 mi
8:00 AM51 °FOvercast.1 mph93%29.98 "Hg6 mi
7:00 AM49 °FOvercast.2 mph92%29.98 "Hg7 mi
5:00 AM46 °FOvercast.1 mph92%29.99 "Hg14 mi
4:00 AM47 °FOvercast.2 mph88%30.02 "Hg17 mi
3:00 AM46 °FOvercast.1 mph92%30.02 "Hg14 mi
2:00 AM49 °FClear.1 mph95%30.01 "Hg5 mi
1:00 AM51 °FOvercast.2 mph92%30.01 "Hg6 mi
12:00 AM50 °FFog.2 mph95%30.02 "Hg3 mi
11:00 PM
Mon, Jun 1
53 °FPassing clouds.2 mph91%30.02 "Hg9 mi
10:00 PM55 °FPassing clouds.3 mph86%30.01 "Hg14 mi
9:00 PM56 °FOvercast.3 mph78%30.01 "Hg18 mi
8:00 PM58 °FOvercast.3 mph71%30.01 "Hg19 mi
7:00 PM60 °FOvercast.3 mph66%30.01 "Hg22 mi
6:00 PM60 °FOvercast.2 mph62%30.02 "Hg28 mi
5:00 PM59 °FOvercast.2 mph62%30.04 "Hg25 mi
4:00 PM58 °FOvercast.1 mph65%30.04 "Hg31 mi
3:00 PM56 °FOvercast.2 mph70%30.05 "Hg25 mi
2:00 PM53 °FOvercast.2 mph77%30.06 "Hg28 mi
1:00 PM53 °FOvercast.3 mph79%30.06 "Hg34 mi
Weather by CustomWeather, © 2015

See weather overviewHow to use our weather pages